• în România
  • Lista ţărilor
  • Pe 7 zile
  • Temperatura apei
  • Hartă satelitară
  • Meteo pe hartă
  • Widget-uri
  • user-avatar
    Intrare

    Meteo pe oră la Wasow

    Astăzi, 22 Octombrie, Luni

    Timp Temperatura Precipitaţii Vânt Presiune Umiditate
    00:00 +5°C° 0 mm 0 m/s 749 mmHg 86%
    01:00 +5°C° 0 mm 0 m/s 749 mmHg 87%
    02:00 +5°C° 0 mm 0 m/s 749 mmHg 87%
    03:00 +4°C° 0 mm 0 m/s 748 mmHg 88%
    04:00 +4°C° 0 mm 0 m/s 748 mmHg 88%
    05:00 +4°C° 0 mm 0 m/s 748 mmHg 87%
    06:00 +4°C° 0 mm 0 m/s 748 mmHg 87%
    07:00 +4°C° 0 mm 0 m/s 748 mmHg 86%
    08:00 +6°C° 0 mm 0 m/s 748 mmHg 77%
    09:00 +9°C° 0 mm 0 m/s 748 mmHg 69%
    10:00 +11°C° 0 mm 0 m/s 748 mmHg 60%
    11:00 +12°C° 0 mm 1 m/s 748 mmHg 56%
    12:00 +13°C° 0 mm 1 m/s 747 mmHg 53%
    13:00 +14°C° 0 mm 1 m/s 747 mmHg 49%
    14:00 +14°C° 0 mm 1 m/s 746 mmHg 52%
    15:00 +13°C° 0 mm 1 m/s 746 mmHg 55%
    16:00 +12°C° 0 mm 2 m/s 746 mmHg 58%
    17:00 +10°C° 0 mm 2 m/s 746 mmHg 62%
    18:00 +9°C° 0 mm 2 m/s 746 mmHg 66%
    19:00 +8°C° 0 mm 2 m/s 746 mmHg 70%
    20:00 +8°C° 0.1 mm 2 m/s 746 mmHg 72%
    21:00 +8°C° 0.1 mm 3 m/s 746 mmHg 74%
    22:00 +9°C° 0.1 mm 3 m/s 746 mmHg 76%
    23:00 +8°C° 0.2 mm 4 m/s 746 mmHg 78%

    Mâine, 23 Octombrie, Marţi

    Timp Temperatura Precipitaţii Vânt Presiune Umiditate
    00:00 +8°C° 0.2 mm 4 m/s 746 mmHg 80%
    01:00 +8°C° 0.2 mm 4 m/s 746 mmHg 82%
    02:00 +7°C° 0.1 mm 4 m/s 746 mmHg 84%
    03:00 +6°C° 0.1 mm 4 m/s 746 mmHg 86%
    04:00 +5°C° 0.1 mm 3 m/s 746 mmHg 88%
    05:00 +5°C° 0 mm 3 m/s 746 mmHg 88%
    06:00 +4°C° 0 mm 3 m/s 746 mmHg 87%
    07:00 +4°C° 0 mm 4 m/s 745 mmHg 87%
    08:00 +5°C° 0 mm 4 m/s 745 mmHg 79%
    09:00 +6°C° 0 mm 5 m/s 744 mmHg 72%
    10:00 +7°C° 0 mm 5 m/s 744 mmHg 64%
    11:00 +7°C° 0.2 mm 6 m/s 743 mmHg 63%
    12:00 +7°C° 0.2 mm 6 m/s 742 mmHg 62%
    13:00 +8°C° 0.2 mm 7 m/s 741 mmHg 62%
    14:00 +6°C° 0.2 mm 7 m/s 740 mmHg 64%
    15:00 +6°C° 0.2 mm 8 m/s 739 mmHg 66%
    16:00 +6°C° 0.2 mm 8 m/s 738 mmHg 68%
    17:00 +6°C° 0.5 mm 9 m/s 737 mmHg 71%
    18:00 +6°C° 0.5 mm 9 m/s 736 mmHg 74%
    19:00 +6°C° 0.5 mm 9 m/s 735 mmHg 78%
    20:00 +7°C° 0.6 mm 9 m/s 734 mmHg 78%
    21:00 +7°C° 0.6 mm 10 m/s 734 mmHg 79%
    22:00 +8°C° 0.6 mm 10 m/s 733 mmHg 79%
    23:00 +8°C° 1.1 mm 9 m/s 732 mmHg 81%

    Poimâine, 24 Octombrie, Miercuri

    Timp Temperatura Precipitaţii Vânt Presiune Umiditate
    00:00 +8°C° 1.1 mm 9 m/s 731 mmHg 83%
    01:00 +9°C° 1.1 mm 8 m/s 730 mmHg 85%
    02:00 +8°C° 1.4 mm 9 m/s 730 mmHg 84%
    03:00 +9°C° 1.4 mm 10 m/s 729 mmHg 83%
    04:00 +9°C° 1.4 mm 10 m/s 728 mmHg 83%
    05:00 +8°C° 1.3 mm 10 m/s 728 mmHg 77%
    06:00 +6°C° 1.3 mm 10 m/s 729 mmHg 72%
    07:00 +5°C° 1.3 mm 10 m/s 729 mmHg 66%
    08:00 +5°C° 0.1 mm 10 m/s 730 mmHg 62%
    09:00 +4°C° 0.1 mm 11 m/s 731 mmHg 57%
    10:00 +4°C° 0.1 mm 11 m/s 732 mmHg 52%
    11:00 +4°C° 0.1 mm 11 m/s 732 mmHg 50%
    12:00 +4°C° 0.1 mm 11 m/s 733 mmHg 48%
    13:00 +6°C° 0.1 mm 11 m/s 733 mmHg 46%
    14:00 +5°C° 0 mm 10 m/s 733 mmHg 46%
    15:00 +5°C° 0 mm 9 m/s 734 mmHg 47%
    16:00 +5°C° 0 mm 8 m/s 734 mmHg 48%
    17:00 +4°C° 0 mm 8 m/s 735 mmHg 50%
    18:00 +4°C° 0 mm 8 m/s 735 mmHg 51%
    19:00 +2°C° 0 mm 8 m/s 736 mmHg 53%
    20:00 +3°C° 0 mm 7 m/s 737 mmHg 54%
    21:00 +3°C° 0 mm 7 m/s 737 mmHg 56%
    22:00 +2°C° 0 mm 7 m/s 738 mmHg 58%
    23:00 +2°C° 0 mm 7 m/s 738 mmHg 60%

    25 Octombrie, Joi

    Timp Temperatura Precipitaţii Vânt Presiune Umiditate
    00:00 +2°C° 0 mm 7 m/s 739 mmHg 61%
    01:00 +2°C° 0 mm 7 m/s 739 mmHg 63%
    02:00 +2°C° 0 mm 6 m/s 740 mmHg 66%
    03:00 +1°C° 0 mm 6 m/s 740 mmHg 69%
    04:00 +1°C° 0 mm 6 m/s 740 mmHg 72%
    05:00 +1°C° 0 mm 6 m/s 741 mmHg 74%
    06:00 +1°C° 0 mm 5 m/s 741 mmHg 75%
    07:00 +1°C° 0 mm 5 m/s 741 mmHg 77%
    08:00 +2°C° 0 mm 6 m/s 741 mmHg 72%
    09:00 +3°C° 0 mm 6 m/s 741 mmHg 67%
    10:00 +5°C° 0 mm 7 m/s 741 mmHg 62%
    11:00 +5°C° 0 mm 7 m/s 741 mmHg 62%
    12:00 +6°C° 0 mm 7 m/s 740 mmHg 62%
    13:00 +6°C° 0 mm 7 m/s 740 mmHg 63%
    14:00 +6°C° 0.1 mm 7 m/s 740 mmHg 68%
    15:00 +7°C° 0.1 mm 6 m/s 739 mmHg 73%
    16:00 +7°C° 0.1 mm 6 m/s 739 mmHg 78%
    17:00 +7°C° 0 mm 6 m/s 739 mmHg 78%
    18:00 +8°C° 0 mm 6 m/s 739 mmHg 79%
    19:00 +8°C° 0 mm 6 m/s 739 mmHg 80%
    20:00 +8°C° 0 mm 5 m/s 739 mmHg 82%
    21:00 +8°C° 0 mm 5 m/s 739 mmHg 84%
    22:00 +7°C° 0 mm 5 m/s 739 mmHg 86%
    23:00 +7°C° 0 mm 5 m/s 739 mmHg 87%

    26 Octombrie, Vineri

    Timp Temperatura Precipitaţii Vânt Presiune Umiditate
    00:00 +7°C° 0 mm 5 m/s 739 mmHg 88%
    01:00 +7°C° 0 mm 4 m/s 739 mmHg 89%
    02:00 +7°C° 0 mm 4 m/s 738 mmHg 90%
    03:00 +7°C° 0 mm 4 m/s 738 mmHg 90%
    04:00 +7°C° 0 mm 4 m/s 738 mmHg 90%
    05:00 +6°C° 0 mm 4 m/s 738 mmHg 90%
    06:00 +7°C° 0 mm 3 m/s 738 mmHg 91%
    07:00 +7°C° 0 mm 3 m/s 738 mmHg 91%
    08:00 +7°C° 0 mm 4 m/s 738 mmHg 83%
    09:00 +10°C° 0 mm 4 m/s 738 mmHg 75%
    10:00 +12°C° 0 mm 4 m/s 738 mmHg 66%
    11:00 +12°C° 0 mm 4 m/s 738 mmHg 63%
    12:00 +13°C° 0 mm 4 m/s 737 mmHg 60%
    13:00 +14°C° 0 mm 3 m/s 737 mmHg 57%
    14:00 +13°C° 0 mm 3 m/s 736 mmHg 61%
    15:00 +13°C° 0 mm 2 m/s 736 mmHg 65%
    16:00 +13°C° 0 mm 1 m/s 736 mmHg 68%
    17:00 +12°C° 0 mm 2 m/s 736 mmHg 72%
    18:00 +10°C° 0 mm 2 m/s 735 mmHg 76%
    19:00 +9°C° 0 mm 2 m/s 735 mmHg 80%
    20:00 +9°C° 0 mm 2 m/s 735 mmHg 82%
    21:00 +8°C° 0 mm 2 m/s 735 mmHg 84%
    22:00 +8°C° 0 mm 2 m/s 735 mmHg 86%
    23:00 +8°C° 0 mm 2 m/s 735 mmHg 86%

    27 Octombrie, Sâmbătă

    Timp Temperatura Precipitaţii Vânt Presiune Umiditate
    00:00 +8°C° 0 mm 2 m/s 734 mmHg 87%
    01:00 +8°C° 0 mm 2 m/s 734 mmHg 87%
    02:00 +8°C° 0 mm 2 m/s 734 mmHg 88%
    03:00 +8°C° 0 mm 2 m/s 734 mmHg 89%
    04:00 +8°C° 0 mm 2 m/s 733 mmHg 90%
    05:00 +8°C° 0 mm 2 m/s 733 mmHg 90%
    06:00 +8°C° 0 mm 2 m/s 733 mmHg 90%
    07:00 +8°C° 0 mm 2 m/s 733 mmHg 90%
    08:00 +10°C° 0 mm 2 m/s 732 mmHg 83%
    09:00 +13°C° 0 mm 2 m/s 732 mmHg 76%
    10:00 +14°C° 0 mm 3 m/s 732 mmHg 69%
    11:00 +16°C° 0 mm 3 m/s 731 mmHg 69%
    12:00 +16°C° 0 mm 3 m/s 730 mmHg 70%
    13:00 +16°C° 0 mm 3 m/s 730 mmHg 71%
    14:00 +16°C° 0.2 mm 3 m/s 729 mmHg 74%
    15:00 +16°C° 0.2 mm 3 m/s 729 mmHg 76%
    16:00 +14°C° 0.2 mm 3 m/s 728 mmHg 79%
    17:00 +14°C° 0.2 mm 3 m/s 728 mmHg 80%
    18:00 +14°C° 0.2 mm 3 m/s 728 mmHg 81%
    19:00 +13°C° 0.2 mm 3 m/s 728 mmHg 82%
    20:00 +13°C° 0 mm 3 m/s 728 mmHg 83%
    21:00 +13°C° 0 mm 3 m/s 728 mmHg 83%
    22:00 +13°C° 0 mm 3 m/s 728 mmHg 83%
    23:00 +12°C° 0.4 mm 4 m/s 728 mmHg 84%
    Arată mai mult